When you browse on this site, cookies collect data to enhance your experience and personalize the content and advertising you see.
Visit our Privacy Policy to learn more. By continuing to use the site, you agree to this use of cookies and data.
  • In Hungary
  • List of Countries
  • For 7 days
  • Water Temperature
  • Satellite Maps
  • Weather Map
  • News
  • Weather Widgets
  • user-avatar
    Login

    Hourly Weather Natick

    Today, 20 July, Saturday

    Time Temperature Precipitation Wind Pressure Humidity
    00:00 +27°C° 0 mm 2 mps 752 mmHg 82%
    01:00 +27°C° 0 mm 2 mps 752 mmHg 83%
    02:00 +27°C° 0 mm 2 mps 752 mmHg 83%
    03:00 +27°C° 0 mm 2 mps 752 mmHg 84%
    04:00 +26°C° 0 mm 2 mps 752 mmHg 84%
    05:00 +28°C° 0 mm 2 mps 752 mmHg 80%
    06:00 +29°C° 0 mm 2 mps 752 mmHg 76%
    07:00 +30°C° 0 mm 2 mps 752 mmHg 72%
    08:00 +32°C° 0 mm 2 mps 752 mmHg 63%
    09:00 +35°C° 0 mm 2 mps 752 mmHg 55%
    10:00 +36°C° 0 mm 2 mps 752 mmHg 47%
    11:00 +37°C° 0 mm 2 mps 752 mmHg 45%
    12:00 +38°C° 0 mm 3 mps 752 mmHg 43%
    13:00 +39°C° 0 mm 3 mps 752 mmHg 41%
    14:00 +39°C° 0 mm 3 mps 751 mmHg 42%
    15:00 +39°C° 0 mm 3 mps 751 mmHg 43%
    16:00 +39°C° 0 mm 3 mps 750 mmHg 43%
    17:00 +37°C° 0 mm 3 mps 751 mmHg 51%
    18:00 +35°C° 0 mm 3 mps 751 mmHg 60%
    19:00 +32°C° 0 mm 2 mps 751 mmHg 68%
    20:00 +31°C° 0 mm 2 mps 751 mmHg 71%
    21:00 +30°C° 0 mm 2 mps 751 mmHg 73%
    22:00 +29°C° 0 mm 2 mps 751 mmHg 76%
    23:00 +29°C° 0 mm 2 mps 751 mmHg 78%

    Tomorrow, 21 July, Sunday

    Time Temperature Precipitation Wind Pressure Humidity
    00:00 +28°C° 0 mm 2 mps 751 mmHg 80%
    01:00 +28°C° 0 mm 2 mps 751 mmHg 82%
    02:00 +28°C° 0 mm 2 mps 751 mmHg 83%
    03:00 +27°C° 0 mm 2 mps 750 mmHg 84%
    04:00 +27°C° 0 mm 2 mps 750 mmHg 85%
    05:00 +28°C° 0 mm 2 mps 750 mmHg 81%
    06:00 +29°C° 0 mm 3 mps 751 mmHg 76%
    07:00 +31°C° 0 mm 3 mps 751 mmHg 71%
    08:00 +33°C° 0 mm 3 mps 751 mmHg 64%
    09:00 +35°C° 0 mm 4 mps 751 mmHg 56%
    10:00 +37°C° 0 mm 4 mps 750 mmHg 49%
    11:00 +38°C° 0 mm 4 mps 750 mmHg 46%
    12:00 +40°C° 0 mm 4 mps 750 mmHg 43%
    13:00 +41°C° 0 mm 4 mps 749 mmHg 40%
    14:00 +41°C° 0 mm 5 mps 749 mmHg 41%
    15:00 +40°C° 0 mm 5 mps 749 mmHg 43%
    16:00 +40°C° 0 mm 5 mps 749 mmHg 44%
    17:00 +37°C° 0 mm 5 mps 750 mmHg 48%
    18:00 +35°C° 0 mm 4 mps 750 mmHg 53%
    19:00 +33°C° 0 mm 4 mps 751 mmHg 57%
    20:00 +31°C° 0 mm 3 mps 751 mmHg 55%
    21:00 +30°C° 0 mm 3 mps 752 mmHg 54%
    22:00 +28°C° 0 mm 3 mps 752 mmHg 52%
    23:00 +27°C° 0 mm 3 mps 752 mmHg 53%

    Day after tomorrow, 22 July, Monday

    Time Temperature Precipitation Wind Pressure Humidity
    00:00 +26°C° 0 mm 2 mps 753 mmHg 55%
    01:00 +25°C° 0 mm 2 mps 753 mmHg 56%
    02:00 +24°C° 0 mm 2 mps 753 mmHg 58%
    03:00 +24°C° 0 mm 2 mps 753 mmHg 60%
    04:00 +23°C° 0 mm 1 mps 753 mmHg 62%
    05:00 +24°C° 0 mm 1 mps 754 mmHg 59%
    06:00 +25°C° 0 mm 1 mps 754 mmHg 56%
    07:00 +26°C° 0 mm 2 mps 755 mmHg 54%
    08:00 +28°C° 0 mm 2 mps 755 mmHg 48%
    09:00 +29°C° 0 mm 2 mps 755 mmHg 43%
    10:00 +31°C° 0 mm 2 mps 755 mmHg 37%
    11:00 +31°C° 0 mm 2 mps 755 mmHg 37%
    12:00 +32°C° 0 mm 2 mps 755 mmHg 37%
    13:00 +32°C° 0 mm 2 mps 754 mmHg 38%
    14:00 +30°C° 0 mm 2 mps 754 mmHg 46%
    15:00 +27°C° 0 mm 2 mps 754 mmHg 54%
    16:00 +25°C° 0 mm 2 mps 754 mmHg 62%
    17:00 +24°C° 0.3 mm 2 mps 754 mmHg 68%
    18:00 +23°C° 0.3 mm 2 mps 754 mmHg 75%
    19:00 +22°C° 0.3 mm 1 mps 754 mmHg 81%
    20:00 +21°C° 0.1 mm 2 mps 754 mmHg 83%
    21:00 +21°C° 0.1 mm 2 mps 754 mmHg 85%
    22:00 +20°C° 0.1 mm 2 mps 753 mmHg 88%
    23:00 +20°C° 0.3 mm 2 mps 753 mmHg 89%

    23 July, Tuesday

    Time Temperature Precipitation Wind Pressure Humidity
    00:00 +20°C° 0.3 mm 2 mps 752 mmHg 90%
    01:00 +20°C° 0.3 mm 3 mps 752 mmHg 92%
    02:00 +19°C° 1.5 mm 3 mps 751 mmHg 92%
    03:00 +19°C° 1.5 mm 3 mps 751 mmHg 93%
    04:00 +18°C° 1.5 mm 3 mps 750 mmHg 94%
    05:00 +18°C° 1.1 mm 3 mps 750 mmHg 94%
    06:00 +18°C° 1.1 mm 3 mps 750 mmHg 94%
    07:00 +18°C° 1.1 mm 3 mps 750 mmHg 94%
    08:00 +18°C° 3.5 mm 3 mps 751 mmHg 95%
    09:00 +17°C° 3.5 mm 4 mps 751 mmHg 95%
    10:00 +17°C° 3.5 mm 4 mps 751 mmHg 95%
    11:00 +17°C° 1.6 mm 3 mps 751 mmHg 95%
    12:00 +17°C° 1.6 mm 3 mps 752 mmHg 95%
    13:00 +18°C° 1.6 mm 3 mps 752 mmHg 94%
    14:00 +17°C° 0.4 mm 3 mps 752 mmHg 94%
    15:00 +17°C° 0.4 mm 2 mps 752 mmHg 94%
    16:00 +17°C° 0.4 mm 2 mps 753 mmHg 94%
    17:00 +17°C° 0 mm 2 mps 753 mmHg 93%
    18:00 +17°C° 0 mm 2 mps 754 mmHg 92%
    19:00 +17°C° 0 mm 2 mps 754 mmHg 91%
    20:00 +18°C° 0 mm 1 mps 754 mmHg 90%
    21:00 +18°C° 0 mm 1 mps 755 mmHg 90%
    22:00 +18°C° 0 mm 1 mps 755 mmHg 90%
    23:00 +18°C° 0 mm 1 mps 755 mmHg 90%

    24 July, Wednesday

    Time Temperature Precipitation Wind Pressure Humidity
    00:00 +16°C° 0 mm 1 mps 755 mmHg 91%
    01:00 +15°C° 0 mm 0 mps 755 mmHg 92%
    02:00 +15°C° 0 mm 0 mps 755 mmHg 92%
    03:00 +15°C° 0 mm 0 mps 755 mmHg 92%
    04:00 +15°C° 0 mm 0 mps 755 mmHg 92%
    05:00 +16°C° 0 mm 0 mps 756 mmHg 88%
    06:00 +17°C° 0 mm 0 mps 756 mmHg 85%
    07:00 +18°C° 0 mm 0 mps 756 mmHg 81%
    08:00 +20°C° 0 mm 0 mps 756 mmHg 74%
    09:00 +22°C° 0 mm 0 mps 756 mmHg 66%
    10:00 +25°C° 0 mm 0 mps 756 mmHg 59%
    11:00 +28°C° 0 mm 1 mps 756 mmHg 55%
    12:00 +29°C° 0 mm 1 mps 756 mmHg 51%
    13:00 +29°C° 0 mm 1 mps 756 mmHg 47%
    14:00 +29°C° 0 mm 1 mps 756 mmHg 50%
    15:00 +28°C° 0 mm 2 mps 756 mmHg 53%
    16:00 +27°C° 0 mm 2 mps 755 mmHg 56%
    17:00 +26°C° 0 mm 2 mps 756 mmHg 65%
    18:00 +24°C° 0 mm 3 mps 756 mmHg 74%
    19:00 +21°C° 0 mm 3 mps 756 mmHg 83%
    20:00 +20°C° 0 mm 3 mps 756 mmHg 86%
    21:00 +20°C° 0 mm 2 mps 756 mmHg 89%
    22:00 +19°C° 0 mm 2 mps 757 mmHg 93%
    23:00 +18°C° 0 mm 2 mps 756 mmHg 93%

    25 July, Thursday

    Time Temperature Precipitation Wind Pressure Humidity
    00:00 +18°C° 0 mm 2 mps 756 mmHg 93%
    01:00 +18°C° 0 mm 2 mps 756 mmHg 94%
    02:00 +18°C° 0 mm 1 mps 756 mmHg 94%
    03:00 +18°C° 0 mm 1 mps 756 mmHg 94%
    04:00 +18°C° 0 mm 1 mps 757 mmHg 94%
    05:00 +20°C° 0 mm 1 mps 757 mmHg 88%
    06:00 +21°C° 0 mm 1 mps 757 mmHg 81%
    07:00 +23°C° 0 mm 1 mps 757 mmHg 75%
    08:00 +25°C° 0 mm 1 mps 757 mmHg 64%
    09:00 +27°C° 0 mm 2 mps 758 mmHg 53%
    10:00 +29°C° 0 mm 2 mps 758 mmHg 42%
    11:00 +30°C° 0 mm 2 mps 758 mmHg 40%
    12:00 +30°C° 0 mm 3 mps 758 mmHg 37%
    13:00 +31°C° 0 mm 3 mps 758 mmHg 34%
    14:00 +31°C° 0 mm 3 mps 758 mmHg 38%
    15:00 +30°C° 0 mm 3 mps 758 mmHg 42%
    16:00 +29°C° 0 mm 3 mps 758 mmHg 45%
    17:00 +28°C° 0 mm 2 mps 758 mmHg 50%
    18:00 +26°C° 0 mm 2 mps 759 mmHg 55%
    19:00 +25°C° 0 mm 2 mps 759 mmHg 60%
    20:00 +24°C° 0 mm 2 mps 760 mmHg 59%
    21:00 +23°C° 0 mm 1 mps 760 mmHg 59%
    22:00 +21°C° 0 mm 1 mps 761 mmHg 59%
    23:00 +21°C° 0 mm 1 mps 761 mmHg 62%
    Show more